Regional Weather Roundup
Issued by NWS

Home | Current Version | Previous Version | Text Only | Print | Product List | Glossary Off
Versions: 1 2 3 4 5 6 7 8 9 10 11 12 13 14 15 16 17 18 19 20 21 22 23 24 25 26 27 28 29 30 31 32 33 34 35 36 37 38 39 40 41 42 43 44 45 46 47 48 49 50

000
ASUS43 KTOP 061359
RWRKS

WEATHER ROUNDUP FOR KANSAS
NATIONAL WEATHER SERVICE GOODLAND KS
800 AM CST FRI MAR 06 2015

NOTE:  "FAIR" INDICATES FEW OR NO CLOUDS BELOW 12,000 FEET WITH NO
SIGNIFICANT WEATHER AND/OR OBSTRUCTIONS TO VISIBILITY.

KSZ001>006-013>018-027>032-041>047-061500-
NORTHWEST KANSAS

CITY           SKY/WX    TMP DP  RH WIND       PRES   REMARKS
GOODLAND       CLEAR     30  20  66 W9        30.26S
HAYS           SUNNY     27  12  54 W6        30.29R
HILL CITY      CLEAR     27  18  69 W8        30.28R
RUSSELL        SUNNY     28  20  71 SW9       30.28R
$$

KSZ061>065-074>080-084>089-061500-
SOUTHWEST KANSAS

CITY           SKY/WX    TMP DP  RH WIND       PRES   REMARKS
DODGE CITY     CLEAR     28  21  75 SW8       30.31R
ELKHART          N/A     30  20  66 NW7         N/A
GARDEN CITY    CLEAR     24  21  88 W7        30.30R
GREAT BEND     SUNNY     27  18  69 SW6       30.31S
LIBERAL        CLEAR     27  19  74 W6        30.34R
$$

KSZ066>073-081>083-090>101-061500-
SOUTHEAST KANSAS

CITY           SKY/WX    TMP DP  RH WIND       PRES   REMARKS
CHANUTE        SUNNY     30  20  66 S14       30.40S WCI  19
COFFEYVILLE    SUNNY     29  19  66 S14       30.45S WCI  18
HUTCHINSON     SUNNY     30  23  75 SW5       30.33S
MEDICINE LODGE   N/A     26  22  84 S6        30.36S
NEWTON         SUNNY     28  19  69 SW15      30.34R WCI  17
PARSONS        SUNNY     31  20  63 S7        30.44R
WICHITA INTL   MOSUNNY   28  22  78 S12       30.36S WCI  18
WICHITA JABRA  SUNNY     30  21  69 SW14      30.35S WCI  19
WICHITA MCCONL SUNNY     29  21  73 S15       30.36S WCI  18
WINFIELD       SUNNY     29  21  72 SW13      30.41S WCI  19
$$

KSZ007>012-019>026-033>040-048>060-102>105-061500-
NORTHEAST KANSAS

CITY           SKY/WX    TMP DP  RH WIND       PRES   REMARKS
CONCORDIA      SUNNY     30  17  58 SW13      30.26R WCI  20
EMPORIA        SUNNY     31  22  69 S14       30.33S WCI  21
LAWRENCE       SUNNY     32  20  61 SW7       30.33R
MANHATTAN      SUNNY     30  23  75 SW7       30.31R
OLATHE IND     SUNNY     30  19  63 S18       30.32R WCI  18
OLATHE EXE     SUNNY     30  20  66 SW12      30.31R WCI  20
SALINA         SUNNY     30  23  75 SW12      30.31R WCI  20
TOPEKA BILLARD SUNNY     33  20  58 SW9       30.32R
TOPEKA FORBES  SUNNY     32  20  61 SW14G20   30.30R WCI  22
$$


USA.gov is the U.S. government's official web portal to all federal, state and local government web resources and services.